| time (UTC) | temp F | wind direction | speed knots | gust knots | rain 1hr in | rain 24hr in | rain mn in | humidity % | barometer mb |
| 20260507093049 | 55 | 22 | 8.7 | 14.8 | 0.00 | 0.04 | 0.00 | 81 | 1018.9 |
| 20260507091541 | 55 | 44 | 7.8 | 13.9 | 0.00 | 0.04 | 0.00 | 81 | 1018.7 |
| 20260507090044 | 56 | 32 | 9.6 | 14.8 | 0.00 | 0.04 | 0.00 | 80 | 1018.6 |
| 20260507084712 | 56 | 28 | 7.8 | 13.9 | 0.00 | 0.04 | 0.00 | 81 | 1018.5 |
| 20260507083049 | 57 | 57 | 6.1 | 11.3 | 0.00 | 0.04 | 0.00 | 81 | 1018.4 |
| 20260507081545 | 57 | 59 | 4.3 | 9.6 | 0.00 | 0.04 | 0.00 | 81 | 1018.3 |
| 20260507080055 | 57 | 49 | 5.2 | 12.2 | 0.00 | 0.04 | 0.00 | 81 | 1018.3 |
| 20260507074547 | 57 | 62 | 4.3 | 11.3 | 0.00 | 0.04 | 0.00 | 81 | 1018.2 |
| 20260507073053 | 57 | 69 | 7.0 | 13.0 | 0.00 | 0.04 | 0.00 | 81 | 1017.8 |
| 20260507071559 | 57 | 36 | 8.7 | 14.8 | 0.00 | 0.04 | 0.00 | 81 | 1017.6 |
| 20260507070045 | 57 | 38 | 7.0 | 12.2 | 0.00 | 0.04 | 0.00 | 83 | 1017.5 |
| 20260507064550 | 58 | 39 | 6.1 | 12.2 | 0.00 | 0.04 | 0.00 | 84 | 1017.3 |
| 20260507063055 | 58 | 49 | 2.6 | 8.7 | 0.00 | 0.04 | 0.00 | 86 | 1016.9 |
| 20260507061548 | 58 | 59 | 4.3 | 7.8 | 0.00 | 0.04 | 0.00 | 85 | 1016.8 |
| 20260507060046 | 58 | 78 | 3.5 | 7.8 | 0.00 | 0.04 | 0.00 | 85 | 1016.7 |
| 20260507054552 | 58 | 59 | 4.3 | 8.7 | 0.00 | 0.04 | 0.00 | 84 | 1017.0 |
| 20260507053048 | 58 | 53 | 4.3 | 9.6 | 0.00 | 0.04 | 0.00 | 84 | 1016.9 |
| 20260507051545 | 58 | 63 | 5.2 | 9.6 | 0.00 | 0.04 | 0.00 | 83 | 1016.8 |
| 20260507050054 | 58 | 61 | 4.3 | 9.6 | 0.00 | 0.04 | 0.00 | 83 | 1016.8 |
| 20260507044545 | 59 | 38 | 5.2 | 8.7 | 0.00 | 0.04 | 0.04 | 83 | 1016.6 |
| 20260507043045 | 59 | 27 | 4.3 | 10.4 | 0.00 | 0.04 | 0.04 | 83 | 1016.6 |
| 20260507041551 | 60 | 67 | 3.5 | 5.2 | 0.00 | 0.04 | 0.04 | 82 | 1016.2 |
| 20260507040057 | 61 | 68 | 3.5 | 7.0 | 0.00 | 0.04 | 0.04 | 80 | 1016.0 |
| 20260507034553 | 61 | 99 | 2.6 | 7.8 | 0.00 | 0.04 | 0.04 | 80 | 1015.6 |
| 20260507033046 | 61 | 80 | 2.6 | 6.1 | 0.00 | 0.04 | 0.04 | 79 | 1015.5 |
| 20260507031543 | 62 | 114 | 2.6 | 7.0 | 0.00 | 0.04 | 0.04 | 78 | 1015.1 |
| 20260507030043 | 62 | 112 | 3.5 | 7.0 | 0.00 | 0.04 | 0.04 | 77 | 1014.9 |
| 20260507024545 | 63 | 111 | 5.2 | 9.6 | 0.00 | 0.04 | 0.04 | 76 | 1015.0 |
| 20260507023042 | 63 | 90 | 5.2 | 9.6 | 0.00 | 0.04 | 0.04 | 75 | 1014.6 |
| 20260507021546 | 64 | 98 | 5.2 | 9.6 | 0.00 | 0.04 | 0.04 | 73 | 1014.6 |
| 20260507020051 | 64 | 98 | 4.3 | 8.7 | 0.00 | 0.04 | 0.04 | 72 | 1014.2 |
| 20260507014545 | 65 | 107 | 5.2 | 9.6 | 0.00 | 0.04 | 0.04 | 71 | 1014.0 |
| 20260507013047 | 66 | 53 | 5.2 | 11.3 | 0.00 | 0.04 | 0.04 | 68 | 1014.0 |
| 20260507011555 | 67 | 89 | 7.0 | 12.2 | 0.00 | 0.04 | 0.04 | 67 | 1014.0 |
| 20260507010046 | 69 | 103 | 7.0 | 10.4 | 0.00 | 0.04 | 0.04 | 64 | 1013.5 |
| 20260507004542 | 69 | 72 | 4.3 | 11.3 | 0.00 | 0.04 | 0.04 | 62 | 1013.6 |
| 20260507003044 | 69 | 60 | 7.8 | 13.0 | 0.00 | 0.04 | 0.04 | 62 | 1013.3 |
| 20260507001602 | 70 | 49 | 7.0 | 10.4 | 0.00 | 0.04 | 0.04 | 61 | 1013.3 |
| 20260507000056 | 70 | 32 | 7.0 | 10.4 | 0.00 | 0.04 | 0.04 | 59 | 1013.5 |
| 20260506234547 | 71 | 63 | 4.3 | 9.6 | 0.00 | 0.04 | 0.04 | 60 | 1013.4 |
| 20260506233045 | 71 | 49 | 5.2 | 9.6 | 0.00 | 0.04 | 0.04 | 59 | 1013.2 |
| 20260506231547 | 71 | 35 | 6.1 | 10.4 | 0.00 | 0.04 | 0.04 | 58 | 1013.3 |
| 20260506230053 | 71 | 35 | 3.5 | 9.6 | 0.00 | 0.04 | 0.04 | 59 | 1013.1 |
| 20260506224546 | 72 | 61 | 4.3 | 11.3 | 0.00 | 0.04 | 0.04 | 57 | 1013.1 |
| 20260506223045 | 71 | 57 | 4.3 | 9.6 | 0.00 | 0.04 | 0.04 | 59 | 1013.0 |
| 20260506221543 | 70 | 101 | 4.3 | 9.6 | 0.00 | 0.04 | 0.04 | 60 | 1013.1 |
| 20260506214547 | 70 | 80 | 5.2 | 8.7 | 0.00 | 0.04 | 0.04 | 62 | 1013.1 |
| 20260506213046 | 69 | 30 | 0.9 | 9.6 | 0.00 | 0.04 | 0.04 | 63 | 1013.3 |
| 20260506211544 | 70 | 84 | 4.3 | 8.7 | 0.00 | 0.04 | 0.04 | 62 | 1013.6 |
| 20260506210050 | 67 | 40 | 2.6 | 10.4 | 0.00 | 0.04 | 0.04 | 67 | 1013.5 |
| 20260506204541 | 66 | 0 | 3.5 | 10.4 | 0.00 | 0.04 | 0.04 | 70 | 1013.6 |
| 20260506203135 | 66 | 23 | 2.6 | 8.7 | 0.00 | 0.04 | 0.04 | 70 | 1013.9 |
| 20260506201547 | 65 | 38 | 4.3 | 10.4 | 0.00 | 0.04 | 0.04 | 71 | 1014.2 |
| 20260506200049 | 63 | 90 | 3.5 | 9.6 | 0.00 | 0.04 | 0.04 | 74 | 1014.6 |
| 20260506194542 | 62 | 103 | 4.3 | 9.6 | 0.00 | 0.04 | 0.04 | 75 | 1014.9 |
| 20260506193040 | 61 | 64 | 4.3 | 10.4 | 0.00 | 0.04 | 0.04 | 75 | 1014.8 |
| 20260506191552 | 61 | 19 | 5.2 | 9.6 | 0.00 | 0.04 | 0.04 | 77 | 1015.0 |
| 20260506190050 | 60 | 55 | 5.2 | 10.4 | 0.00 | 0.04 | 0.04 | 77 | 1015.1 |
| 20260506184552 | 60 | 22 | 6.1 | 13.0 | 0.00 | 0.04 | 0.04 | 78 | 1015.1 |
| 20260506183043 | 59 | 24 | 7.0 | 13.0 | 0.00 | 0.04 | 0.04 | 78 | 1015.5 |
| 20260506181544 | 59 | 65 | 7.0 | 13.0 | 0.00 | 0.04 | 0.04 | 78 | 1015.8 |
| 20260506180048 | 59 | 34 | 7.0 | 14.8 | 0.00 | 0.04 | 0.04 | 79 | 1015.9 |
| 20260506174550 | 59 | 10 | 8.7 | 14.8 | 0.00 | 0.04 | 0.04 | 79 | 1015.8 |
| 20260506173054 | 58 | 27 | 7.8 | 13.0 | 0.00 | 0.04 | 0.04 | 80 | 1016.0 |
| 20260506171557 | 57 | 40 | 8.7 | 13.9 | 0.00 | 0.04 | 0.04 | 81 | 1015.9 |
| 20260506170043 | 57 | 17 | 9.6 | 15.6 | 0.00 | 0.04 | 0.04 | 81 | 1015.6 |
| 20260506164549 | 56 | 355 | 8.7 | 13.0 | 0.00 | 0.04 | 0.04 | 82 | 1015.6 |
| 20260506163058 | 56 | 45 | 8.7 | 14.8 | 0.00 | 0.04 | 0.04 | 82 | 1015.7 |
| 20260506161544 | 55 | 39 | 10.4 | 13.9 | 0.00 | 0.04 | 0.04 | 83 | 1015.3 |
| 20260506160050 | 55 | 15 | 10.4 | 14.8 | 0.00 | 0.04 | 0.04 | 83 | 1015.3 |
| 20260506154548 | 55 | 5 | 10.4 | 13.9 | 0.00 | 0.04 | 0.04 | 84 | 1015.0 |
| 20260506153050 | 54 | 35 | 9.6 | 13.9 | 0.00 | 0.04 | 0.04 | 87 | 1014.7 |
| 20260506151544 | 54 | 30 | 11.3 | 16.5 | 0.00 | 0.04 | 0.04 | 87 | 1014.7 |
| 20260506150045 | 53 | 19 | 10.4 | 17.4 | 0.00 | 0.04 | 0.04 | 89 | 1014.5 |
| 20260506144546 | 53 | 13 | 11.3 | 14.8 | 0.00 | 0.04 | 0.04 | 89 | 1014.4 |
| 20260506143040 | 52 | 9 | 10.4 | 17.4 | 0.03 | 0.04 | 0.04 | 89 | 1014.4 |
| 20260506141544 | 52 | 14 | 13.9 | 19.1 | 0.03 | 0.04 | 0.04 | 89 | 1013.7 |
| 20260506140046 | 52 | 11 | 10.4 | 17.4 | 0.03 | 0.04 | 0.04 | 90 | 1013.8 |
| 20260506134547 | 52 | 30 | 7.8 | 13.0 | 0.03 | 0.03 | 0.03 | 89 | 1014.2 |
| 20260506133046 | 52 | 25 | 7.8 | 16.5 | 0.01 | 0.01 | 0.01 | 88 | 1014.2 |
| 20260506131547 | 53 | 34 | 13.0 | 18.2 | 0.01 | 0.01 | 0.01 | 88 | 1012.9 |
| 20260506130047 | 53 | 75 | 9.6 | 18.2 | 0.01 | 0.01 | 0.01 | 87 | 1012.9 |
| 20260506124547 | 54 | 39 | 5.2 | 18.2 | 0.00 | 0.00 | 0.00 | 84 | 1014.8 |
| 20260506123043 | 54 | 24 | 8.7 | 14.8 | 0.00 | 0.00 | 0.00 | 83 | 1014.1 |
| 20260506121557 | 55 | 59 | 8.7 | 16.5 | 0.00 | 0.00 | 0.00 | 82 | 1012.3 |
| 20260506120053 | 55 | 40 | 8.7 | 13.9 | 0.00 | 0.00 | 0.00 | 82 | 1012.0 |
| 20260506114552 | 55 | 11 | 10.4 | 15.6 | 0.00 | 0.00 | 0.00 | 81 | 1012.7 |
| 20260506113053 | 55 | 28 | 12.2 | 15.6 | 0.00 | 0.00 | 0.00 | 81 | 1012.0 |
| 20260506111542 | 55 | 20 | 10.4 | 14.8 | 0.00 | 0.00 | 0.00 | 81 | 1012.0 |
| 20260506110056 | 55 | 32 | 9.6 | 14.8 | 0.00 | 0.00 | 0.00 | 81 | 1011.6 |
| 20260506104548 | 55 | 42 | 5.2 | 13.9 | 0.00 | 0.00 | 0.00 | 81 | 1011.1 |
| 20260506103045 | 56 | 30 | 9.6 | 13.9 | 0.00 | 0.00 | 0.00 | 80 | 1011.1 |
| 20260506101605 | 56 | 65 | 10.4 | 14.8 | 0.00 | 0.00 | 0.00 | 80 | 1011.4 |
| 20260506100044 | 57 | 26 | 10.4 | 14.8 | 0.00 | 0.00 | 0.00 | 79 | 1011.0 |
| 20260506094540 | 58 | 50 | 10.4 | 16.5 | 0.00 | 0.00 | 0.00 | 79 | 1011.0 |